FW6684 Weather Reports


time (UTC)temp
F
wind
direction
speed
knots
gust
knots
rain 1hr
in
rain 24hr
in
rain mn
in
humidity
%
barometer
mb
20260507100107 55 0 0.0 0.0 0.00 0.00 0.00 62 1018.9
20260507095547 54 0 0.0 0.0 0.00 0.00 0.00 63 1018.8
20260507095044 54 0 0.0 0.0 0.00 0.00 0.00 63 1019.0
20260507094607 54 0 0.0 0.0 0.00 0.00 0.00 69 1018.8
20260507094044 54 0 0.0 0.0 0.00 0.00 0.00 68 1018.9
20260507093544 54 0 0.0 0.0 0.00 0.00 0.00 71 1018.8
20260507093058 54 0 0.0 0.0 0.00 0.00 0.00 70 1018.9
20260507092544 54 0 0.0 0.0 0.00 0.00 0.00 72 1018.9
20260507092043 54 0 0.0 0.0 0.00 0.00 0.00 72 1018.8
20260507091628 54 0 0.0 0.0 0.00 0.00 0.00 71 1019.0
20260507091044 54 0 0.0 0.0 0.00 0.00 0.00 72 1019.0
20260507090543 54 0 0.0 0.0 0.00 0.00 0.00 72 1019.0
20260507090105 54 0 0.0 0.0 0.00 0.00 0.00 76 1018.9
20260507085548 54 0 0.0 0.0 0.00 0.00 0.00 75 1019.0
20260507085045 53 0 0.0 0.0 0.00 0.00 0.00 75 1019.1
20260507084557 54 0 0.0 0.0 0.00 0.00 0.00 76 1019.1
20260507084044 54 0 0.0 0.0 0.00 0.00 0.00 78 1019.2
20260507083544 54 0 0.0 0.0 0.00 0.00 0.00 78 1019.1
20260507083053 54 0 0.0 0.0 0.00 0.00 0.00 79 1019.2
20260507082544 53 0 0.0 0.0 0.00 0.00 0.00 80 1018.9
20260507082047 53 0 0.0 0.0 0.00 0.00 0.00 81 1019.1
20260507081550 52 0 0.0 0.0 0.00 0.00 0.00 81 1019.1
20260507081044 52 0 0.0 0.0 0.00 0.00 0.00 82 1019.2
20260507080543 52 0 0.0 0.0 0.00 0.00 0.00 83 1019.2
20260507080052 52 0 0.0 0.0 0.00 0.00 0.00 83 1019.1
20260507075544 52 0 0.0 0.0 0.00 0.00 0.00 85 1019.1
20260507075044 52 0 0.0 0.0 0.00 0.00 0.00 87 1019.2
20260507074556 51 0 0.0 0.0 0.00 0.00 0.00 88 1018.9
20260507074043 51 0 0.0 0.0 0.00 0.00 0.00 89 1018.9
20260507073545 50 0 0.0 0.0 0.00 0.00 0.00 91 1019.1
20260507073051 50 0 0.0 0.0 0.00 0.00 0.00 92 1019.0
20260507072544 49 0 0.0 0.0 0.00 0.00 0.00 92 1018.8
20260507072045 48 0 0.0 0.0 0.00 0.00 0.00 93 1018.9
20260507071557 48 0 0.0 0.0 0.00 0.00 0.00 94 1018.9
20260507071044 47 0 0.0 0.0 0.00 0.00 0.00 94 1019.0
20260507070544 46 0 0.0 0.0 0.00 0.00 0.00 94 1019.0
20260507065543 45 0 0.0 0.0 0.00 0.00 0.00 94 1019.0
20260507065044 45 0 0.0 0.0 0.00 0.00 0.00 93 1018.9
20260507064600 45 0 0.0 0.0 0.00 0.00 0.00 93 1018.9
20260507064044 44 0 0.0 0.0 0.00 0.00 0.00 93 1018.9
20260507063544 44 0 0.0 0.0 0.00 0.00 0.00 94 1018.9
20260507063051 44 0 0.0 0.0 0.00 0.00 0.00 94 1018.9
20260507062544 44 0 0.0 0.0 0.00 0.00 0.00 93 1018.9
20260507062044 44 0 0.0 0.0 0.00 0.00 0.00 94 1018.9
20260507061552 44 0 0.0 0.0 0.00 0.00 0.00 94 1018.8
20260507061044 43 0 0.0 0.0 0.00 0.00 0.00 94 1018.8
20260507060547 43 0 0.0 0.0 0.00 0.00 0.00 94 1018.9
20260507060105 43 0 0.0 0.0 0.00 0.00 0.00 93 1018.8
20260507055546 43 0 0.0 0.0 0.00 0.00 0.00 93 1018.8
20260507055044 43 0 0.0 0.0 0.00 0.00 0.00 93 1018.7
20260507054559 43 0 0.0 0.0 0.00 0.00 0.00 93 1018.8
20260507054043 43 0 0.0 0.0 0.00 0.00 0.00 93 1018.7
20260507053544 43 0 0.0 0.0 0.00 0.00 0.00 93 1018.6
20260507053057 43 0 0.0 0.0 0.00 0.00 0.00 93 1018.6
20260507052547 43 0 0.0 0.0 0.00 0.00 0.00 93 1018.5
20260507052044 43 0 0.0 0.0 0.00 0.00 0.00 93 1018.6
20260507051556 43 0 0.0 0.0 0.00 0.00 0.00 93 1018.5
20260507051047 43 0 0.0 0.0 0.00 0.00 0.00 93 1018.5
20260507050546 43 0 0.0 0.0 0.00 0.00 0.00 93 1018.5
20260507050054 43 0 0.0 0.0 0.00 0.00 0.00 93 1018.5
20260507045548 42 0 0.0 0.0 0.00 0.00 0.00 93 1018.4
20260507045045 42 0 0.0 0.0 0.00 0.00 0.00 93 1018.4
20260507044555 42 0 0.0 0.0 0.00 0.00 0.00 93 1018.3
20260507044044 42 0 0.0 0.0 0.00 0.00 0.00 93 1018.4
20260507043543 41 0 0.0 0.0 0.00 0.00 0.00 93 1018.3
20260507043059 41 0 0.0 0.0 0.00 0.00 0.00 92 1018.3
20260507042544 41 0 0.0 0.0 0.00 0.00 0.00 93 1018.3
20260507042048 41 0 0.0 0.0 0.00 0.00 0.00 92 1018.3
20260507041554 41 0 0.0 0.0 0.00 0.00 0.00 92 1018.2
20260507041044 41 0 0.0 0.0 0.00 0.00 0.00 92 1018.3
20260507040546 42 0 0.0 0.0 0.00 0.00 0.00 92 1018.3
20260507040052 42 0 0.0 0.0 0.00 0.00 0.00 92 1018.3
20260507035544 42 0 0.0 0.0 0.00 0.00 0.00 92 1018.2
20260507035044 42 0 0.0 0.0 0.00 0.00 0.00 92 1018.2
20260507034559 42 0 0.0 0.0 0.00 0.00 0.00 92 1018.2
20260507034044 42 0 0.0 0.0 0.00 0.00 0.00 92 1018.2
20260507033545 43 0 0.0 0.0 0.00 0.00 0.00 92 1018.2
20260507033053 43 0 0.0 0.0 0.00 0.00 0.00 92 1018.1
20260507032544 43 0 0.0 0.0 0.00 0.00 0.00 93 1018.2
20260507032043 43 0 0.0 0.0 0.00 0.00 0.00 92 1018.2
20260507031552 43 0 0.0 0.0 0.00 0.00 0.00 92 1018.2
20260507031044 43 0 0.0 0.0 0.00 0.00 0.00 93 1018.3
20260507030544 43 0 0.0 0.0 0.00 0.00 0.00 93 1018.4
20260507030051 42 0 0.0 0.0 0.00 0.00 0.00 92 1018.2
20260507025548 42 0 0.0 0.0 0.00 0.00 0.00 92 1018.3
20260507025044 42 0 0.0 0.0 0.00 0.00 0.00 92 1018.2
20260507024558 42 0 0.0 0.0 0.00 0.00 0.00 92 1018.3
20260507024044 42 0 0.0 0.0 0.00 0.00 0.00 92 1018.3
20260507023544 42 0 0.0 0.0 0.00 0.00 0.00 92 1018.3
20260507023051 42 0 0.0 0.0 0.00 0.00 0.00 92 1018.3
20260507022544 42 0 0.0 0.0 0.00 0.00 0.00 92 1018.3
20260507022044 42 0 0.0 0.0 0.00 0.00 0.00 91 1018.4
20260507021557 42 0 0.0 0.0 0.00 0.00 0.00 91 1018.4
20260507021044 42 0 0.0 0.0 0.00 0.00 0.00 91 1018.2
20260507020547 42 0 0.0 0.0 0.00 0.00 0.00 91 1018.3
20260507020054 42 0 0.0 0.0 0.00 0.00 0.00 91 1018.2
20260507015544 42 0 0.0 0.0 0.00 0.00 0.00 91 1018.2
20260507015044 43 0 0.0 0.0 0.00 0.00 0.00 91 1018.2
20260507014553 43 0 0.0 0.0 0.00 0.00 0.00 91 1018.1
20260507014044 43 0 0.0 0.0 0.00 0.00 0.00 91 1018.1
20260507013543 43 0 0.0 0.0 0.00 0.00 0.00 91 1018.2
20260507013052 43 0 0.0 0.0 0.00 0.00 0.00 91 1018.2
20260507012547 43 0 0.0 0.0 0.00 0.00 0.00 90 1018.1
20260507012044 43 0 0.0 0.0 0.00 0.00 0.00 90 1018.1
20260507011551 43 0 0.0 0.0 0.00 0.00 0.00 90 1018.1
20260507011044 43 0 0.0 0.0 0.00 0.00 0.00 90 1018.1
20260507010544 43 0 0.0 0.0 0.00 0.00 0.00 90 1018.1
20260507010109 43 0 0.0 0.0 0.00 0.00 0.00 89 1018.1
20260507005544 44 0 0.0 0.0 0.00 0.00 0.00 89 1018.0
20260507005043 44 0 0.0 0.0 0.00 0.00 0.00 89 1018.1
20260507004550 44 0 0.0 0.0 0.00 0.00 0.00 89 1018.0
20260507004044 44 0 0.0 0.0 0.00 0.00 0.00 89 1018.2
20260507003547 44 0 0.0 0.0 0.00 0.00 0.00 89 1018.2
20260507003052 44 0 0.0 0.0 0.00 0.00 0.00 89 1018.2
20260507002544 44 0 0.0 0.0 0.00 0.00 0.00 89 1018.2
20260507002044 44 0 0.0 0.0 0.00 0.00 0.00 89 1018.2
20260507001557 44 0 0.0 0.0 0.00 0.00 0.00 88 1018.2
20260507001044 44 0 0.0 0.0 0.00 0.00 0.00 88 1018.1
20260507000543 44 0 0.0 0.0 0.00 0.00 0.00 88 1018.2
20260507000056 45 0 0.0 0.0 0.00 0.00 0.00 87 1018.1
20260506235544 45 0 0.0 0.0 0.00 0.00 0.00 88 1018.1
20260506235043 45 0 0.0 0.0 0.00 0.00 0.00 87 1018.0
20260506234602 45 0 0.0 0.0 0.00 0.00 0.00 87 1018.0
20260506234045 45 0 0.0 0.0 0.00 0.00 0.00 87 1018.1
20260506233544 45 0 0.0 0.0 0.00 0.00 0.00 87 1018.0
20260506233100 46 0 0.0 0.0 0.00 0.00 0.00 86 1018.1
20260506232543 46 0 0.0 0.0 0.00 0.00 0.00 87 1018.1
20260506232044 46 0 0.0 0.0 0.00 0.00 0.00 86 1018.1
20260506231554 46 0 0.0 0.0 0.00 0.00 0.00 86 1018.0
20260506231044 46 0 0.0 0.0 0.00 0.00 0.00 85 1018.1
20260506230544 46 0 0.0 0.0 0.00 0.00 0.00 85 1018.1
20260506230054 47 0 0.0 0.0 0.00 0.00 0.00 85 1018.1
20260506225544 47 0 0.0 0.0 0.00 0.00 0.00 85 1018.0
20260506225046 47 0 0.0 0.0 0.00 0.00 0.00 84 1018.1
20260506224556 47 0 0.0 0.0 0.00 0.00 0.00 84 1018.0
20260506224043 47 0 0.0 0.0 0.00 0.00 0.00 83 1017.9
20260506223544 48 0 0.0 0.0 0.00 0.00 0.00 83 1018.0
20260506223058 48 0 0.0 0.0 0.00 0.00 0.00 83 1018.1
20260506222544 48 0 0.0 0.0 0.00 0.00 0.00 82 1018.0
20260506222045 48 0 0.0 0.0 0.00 0.00 0.00 82 1018.1
20260506221552 48 0 0.0 0.0 0.00 0.00 0.00 81 1018.0
20260506221044 48 0 0.0 0.0 0.00 0.00 0.00 81 1018.0
20260506220544 48 0 0.0 0.0 0.00 0.00 0.00 80 1018.0
20260506220053 48 0 0.0 0.0 0.00 0.00 0.00 80 1017.9
20260506215545 49 0 0.0 0.0 0.00 0.00 0.00 80 1017.9
20260506215047 49 0 0.0 0.0 0.00 0.00 0.00 79 1018.0
20260506214556 49 0 0.0 0.0 0.00 0.00 0.00 79 1018.0
20260506214044 49 0 0.0 0.0 0.00 0.00 0.00 79 1018.0
20260506213543 49 0 0.0 0.0 0.00 0.00 0.00 79 1018.0
20260506213057 49 0 0.0 0.0 0.00 0.00 0.00 79 1017.9
20260506212544 49 0 0.0 0.0 0.00 0.00 0.00 79 1017.9
20260506212044 49 0 0.0 0.0 0.00 0.00 0.00 78 1017.9
20260506211555 50 0 0.0 0.0 0.00 0.00 0.00 77 1017.8
20260506211044 50 0 0.0 0.0 0.00 0.00 0.00 78 1017.8
20260506210544 50 0 0.0 0.0 0.00 0.00 0.00 77 1017.7
20260506210053 50 0 0.0 0.0 0.00 0.00 0.00 77 1017.7
20260506205543 50 0 0.0 0.0 0.00 0.00 0.00 76 1017.7
20260506205043 50 0 0.0 0.0 0.00 0.00 0.00 76 1017.6
20260506204555 51 0 0.0 0.0 0.00 0.00 0.00 76 1017.6
20260506204043 51 0 0.0 0.0 0.00 0.00 0.00 75 1017.5
20260506203543 51 0 0.0 0.0 0.00 0.00 0.00 75 1017.4
20260506203051 51 0 0.0 0.0 0.00 0.00 0.00 74 1017.3
20260506202543 51 0 0.0 0.0 0.00 0.00 0.00 74 1017.3
20260506202043 51 0 0.0 0.0 0.00 0.00 0.00 73 1017.3
20260506201552 51 0 0.0 0.0 0.00 0.00 0.00 73 1017.3
20260506201044 51 0 0.0 0.0 0.00 0.00 0.00 72 1017.2
20260506200544 52 0 0.0 0.0 0.00 0.00 0.00 72 1017.2
20260506200051 52 0 0.0 0.0 0.00 0.00 0.00 71 1017.2
20260506195543 52 0 0.0 0.0 0.00 0.00 0.00 70 1017.1
20260506195044 52 0 0.0 0.0 0.00 0.00 0.00 70 1017.1
20260506194553 52 0 0.0 0.0 0.00 0.00 0.00 69 1017.0
20260506194042 52 0 0.0 0.0 0.00 0.00 0.00 69 1016.9
20260506193542 52 0 0.0 0.0 0.00 0.00 0.00 67 1016.9
20260506193054 52 0 0.0 0.0 0.00 0.00 0.00 66 1016.9
20260506192544 52 0 0.0 0.0 0.00 0.00 0.00 65 1017.0
20260506192044 53 0 0.0 0.0 0.00 0.00 0.00 64 1016.8
20260506191554 53 0 0.0 0.0 0.00 0.00 0.00 64 1016.9
20260506191044 53 0 0.0 0.0 0.00 0.00 0.00 63 1016.8
20260506190544 53 0 0.0 0.0 0.00 0.00 0.00 63 1016.6
20260506190051 53 0 0.0 0.0 0.00 0.00 0.00 63 1016.6
20260506185543 53 0 0.0 0.0 0.00 0.00 0.00 63 1016.6
20260506185043 53 0 0.0 0.0 0.00 0.00 0.00 63 1016.6
20260506184550 53 0 0.0 0.0 0.00 0.00 0.00 63 1016.5
20260506184045 53 0 0.0 0.0 0.00 0.00 0.00 64 1016.5
20260506183542 54 0 0.0 0.0 0.00 0.00 0.00 65 1016.5
20260506183051 54 0 0.0 0.0 0.00 0.00 0.00 64 1016.4
20260506182543 54 0 0.0 0.0 0.00 0.00 0.00 64 1016.4
20260506182044 54 0 0.0 0.0 0.00 0.00 0.00 63 1016.3
20260506181551 54 0 0.0 0.0 0.00 0.00 0.00 62 1016.3
20260506181044 54 0 0.0 0.0 0.00 0.00 0.00 63 1016.2
20260506180547 54 0 0.0 0.0 0.00 0.00 0.00 62 1016.2
20260506180054 54 0 0.0 0.0 0.00 0.00 0.00 63 1016.1
20260506175544 54 0 0.0 0.0 0.00 0.00 0.00 63 1016.0
20260506175046 54 0 0.0 0.0 0.00 0.00 0.00 62 1016.0
20260506174558 55 0 0.0 0.0 0.00 0.00 0.00 61 1015.8
20260506174043 55 0 0.0 0.0 0.00 0.00 0.00 62 1015.9
20260506173543 55 0 0.0 0.0 0.00 0.00 0.00 62 1015.9
20260506173111 55 0 0.0 0.0 0.00 0.00 0.00 61 1015.9
20260506172543 55 0 0.0 0.0 0.00 0.00 0.00 61 1015.9
20260506172043 56 0 0.0 0.0 0.00 0.00 0.00 62 1015.7
20260506171552 55 0 0.0 0.0 0.00 0.00 0.00 64 1015.7
20260506171046 55 0 0.0 0.0 0.00 0.00 0.00 63 1015.7
20260506170546 55 0 0.0 0.0 0.00 0.00 0.00 65 1015.8
20260506170051 55 0 0.0 0.0 0.00 0.00 0.00 62 1015.8
20260506165544 55 0 0.0 0.0 0.00 0.00 0.00 62 1015.8
20260506165044 55 0 0.0 0.0 0.00 0.00 0.00 62 1015.7
20260506164549 55 0 0.0 0.0 0.00 0.00 0.00 61 1015.8
20260506164043 55 0 0.0 0.0 0.00 0.00 0.00 61 1015.8
20260506163546 55 0 0.0 0.0 0.00 0.00 0.00 61 1015.7
20260506163054 55 0 0.0 0.0 0.00 0.00 0.00 60 1015.9
20260506162543 55 0 0.0 0.0 0.00 0.00 0.00 60 1015.8
20260506162043 55 0 0.0 0.0 0.00 0.00 0.00 62 1015.8
20260506161550 55 0 0.0 0.0 0.00 0.00 0.00 62 1015.8
20260506161046 55 0 0.0 0.0 0.00 0.00 0.00 63 1015.8
20260506160543 55 0 0.0 0.0 0.00 0.00 0.00 63 1015.8
20260506160049 54 0 0.0 0.0 0.00 0.00 0.00 63 1015.9
20260506155543 54 0 0.0 0.0 0.00 0.00 0.00 64 1015.9
20260506155044 54 0 0.0 0.0 0.00 0.00 0.00 66 1016.0
20260506154600 54 0 0.0 0.0 0.00 0.00 0.00 66 1016.0
20260506154044 54 0 0.0 0.0 0.00 0.00 0.00 66 1015.8
20260506153544 54 0 0.0 0.0 0.00 0.00 0.00 66 1016.0
20260506153047 54 0 0.0 0.0 0.00 0.00 0.00 66 1016.0
20260506152543 54 0 0.0 0.0 0.00 0.00 0.00 67 1016.0
20260506152044 53 0 0.0 0.0 0.00 0.00 0.00 67 1016.1
20260506151551 53 0 0.0 0.0 0.00 0.00 0.00 67 1016.1
20260506151043 53 0 0.0 0.0 0.00 0.00 0.00 67 1016.1
20260506150542 53 0 0.0 0.0 0.00 0.00 0.00 66 1016.0
20260506150059 53 0 0.0 0.0 0.00 0.00 0.00 66 1016.1
20260506145546 53 0 0.0 0.0 0.00 0.00 0.00 66 1016.1
20260506145047 53 0 0.0 0.0 0.00 0.00 0.00 67 1016.2
20260506144603 53 0 0.0 0.0 0.00 0.00 0.00 66 1016.3
20260506144043 53 0 0.0 0.0 0.00 0.00 0.00 66 1016.2
20260506143547 53 0 0.0 0.0 0.00 0.00 0.00 68 1016.2
20260506143053 53 0 0.0 0.0 0.00 0.00 0.00 68 1016.2
20260506142544 53 0 0.0 0.0 0.00 0.00 0.00 68 1016.2
20260506142043 53 0 0.0 0.0 0.00 0.00 0.00 70 1016.1
20260506141547 53 0 0.0 0.0 0.00 0.00 0.00 69 1016.2
20260506141046 53 0 0.0 0.0 0.00 0.00 0.00 69 1016.2
20260506140543 53 0 0.0 0.0 0.00 0.00 0.00 68 1016.3
20260506140106 53 0 0.0 0.0 0.00 0.00 0.00 68 1016.3
20260506135543 53 0 0.0 0.0 0.00 0.00 0.00 68 1016.3
20260506135043 53 0 0.0 0.0 0.00 0.00 0.00 68 1016.4
20260506134553 53 0 0.0 0.0 0.00 0.00 0.00 68 1016.4
20260506134042 53 0 0.0 0.0 0.00 0.00 0.00 69 1016.2
20260506133547 53 0 0.0 0.0 0.00 0.00 0.00 68 1016.3
20260506133102 53 0 0.0 0.0 0.00 0.00 0.00 68 1016.3
20260506132545 53 0 0.0 0.0 0.00 0.00 0.00 67 1016.4
20260506132043 53 0 0.0 0.0 0.00 0.00 0.00 68 1016.2
20260506131548 53 0 0.0 0.0 0.00 0.00 0.00 68 1016.3
20260506131046 53 0 0.0 0.0 0.00 0.00 0.00 69 1016.3
20260506130543 53 0 0.0 0.0 0.00 0.00 0.00 69 1016.4
20260506130136 52 0 0.0 0.0 0.00 0.00 0.00 69 1016.4
20260506125543 53 0 0.0 0.0 0.00 0.00 0.00 70 1016.5
20260506125043 52 0 0.0 0.0 0.00 0.00 0.00 69 1016.4
20260506124554 53 0 0.0 0.0 0.00 0.00 0.00 70 1016.4
20260506124043 53 0 0.0 0.0 0.00 0.00 0.00 70 1016.4
20260506123543 53 0 0.0 0.0 0.00 0.00 0.00 69 1016.4
20260506123052 52 0 0.0 0.0 0.00 0.00 0.00 68 1016.4
20260506122543 52 0 0.0 0.0 0.00 0.00 0.00 67 1016.4
20260506122043 53 0 0.0 0.0 0.00 0.00 0.00 68 1016.3
20260506121555 53 0 0.0 0.0 0.00 0.00 0.00 67 1016.3
20260506121043 53 0 0.0 0.0 0.00 0.00 0.00 68 1016.3
20260506120544 53 0 0.0 0.0 0.00 0.00 0.00 67 1016.3
20260506120100 53 0 0.0 0.0 0.00 0.00 0.00 66 1016.3
20260506115544 53 0 0.0 0.0 0.00 0.00 0.00 66 1016.4
20260506115043 53 0 0.0 0.0 0.00 0.00 0.00 66 1016.1
20260506114550 52 0 0.0 0.0 0.00 0.00 0.00 66 1016.2
20260506114043 52 0 0.0 0.0 0.00 0.00 0.00 67 1016.4
20260506113543 53 0 0.0 0.0 0.00 0.00 0.00 66 1016.3
20260506113054 53 0 0.0 0.0 0.00 0.00 0.00 65 1016.3
20260506112542 53 0 0.0 0.0 0.00 0.00 0.00 66 1016.3
20260506112042 53 0 0.0 0.0 0.00 0.00 0.00 64 1016.3
20260506111553 53 0 0.0 0.0 0.00 0.00 0.00 64 1016.3
20260506111043 53 0 0.0 0.0 0.00 0.00 0.00 65 1016.3
20260506110543 52 0 0.0 0.0 0.00 0.00 0.00 66 1016.3
20260506110050 52 0 0.0 0.0 0.00 0.00 0.00 65 1016.3
20260506105544 52 0 0.0 0.0 0.00 0.00 0.00 65 1016.2
20260506105044 52 0 0.0 0.0 0.00 0.00 0.00 67 1016.3
20260506104559 52 0 0.0 0.0 0.00 0.00 0.00 68 1016.3
20260506104043 52 0 0.0 0.0 0.00 0.00 0.00 66 1016.3
20260506103543 52 0 0.0 0.0 0.00 0.00 0.00 67 1016.3
20260506103054 52 0 0.0 0.0 0.00 0.00 0.00 67 1016.2
20260506102544 52 0 0.0 0.0 0.00 0.00 0.00 68 1016.3
20260506102046 52 0 0.0 0.0 0.00 0.00 0.00 67 1016.3
20260506101553 52 0 0.0 0.0 0.00 0.00 0.00 66 1016.2
20260506101043 52 0 0.0 0.0 0.00 0.00 0.00 65 1016.3
20260506100543 52 0 0.0 0.0 0.00 0.00 0.00 65 1016.2